Regional Weather Roundup
Issued by NWS Albany, NY

Home | Current Version | Previous Version | Text Only | Print | Product List | Glossary On
Versions: 1 2 3 4 5 6 7 8 9 10 11 12 13 14 15 16 17 18 19 20 21 22 23 24 25 26 27 28 29 30 31 32 33 34 35 36 37 38 39 40 41 42 43 44 45 46 47 48 49 50
608
ASUS41 KALY 231810
RWRALY

NEW YORK STATE HOURLY WEATHER ROUNDUP
NATIONAL WEATHER SERVICE ALBANY NY
200 PM EDT SAT JUL 23 2016

NOTE: "FAIR" INDICATES FEW OR NO CLOUDS BELOW 12,000 FEET WITH NO
SIGNIFICANT WEATHER AND/OR NO OBSTRUCTIONS TO VISIBILITY.

NYZ032-033-038>043-046>054-057>066-NYZ062>081-082-084-231900-
EAST


CITY           SKY/WX    TMP DP  RH WIND       PRES   REMARKS
ALBANY         PTSUNNY   91  58  32 W14       29.81F HX  90
GLENS FALLS    MOSUNNY   90  61  37 NW10G20   29.77F HX  90
POUGHKEEPSIE   MOSUNNY   94  56  27 W14G26    29.81F HX  92
NEWBURGH       MOSUNNY   91  63  38 NW14G24   29.86F HX  92
MONTGOMERY     MOSUNNY   94  61  33 NW9G24    29.84F HX  94
WHITE PLAINS   MOSUNNY   93  56  28 W14G21    29.83F HX  91
ISLIP          MOSUNNY   95  55  26 NW14G24   29.81F HX  93
NEW YORK CITY  MOSUNNY   94  58  29 W15G25    29.81F HX  93
CENTRAL PARK   SUNNY     94  59  31 W8        29.85F HX  93
$$

NYZ005>009-017-018-044>046-055-056-231900-
CENTRAL


CITY           SKY/WX    TMP DP  RH WIND       PRES   REMARKS
FULTON         SUNNY     86  64  47 W13       29.89S
SYRACUSE       MOSUNNY   86  61  42 W16       29.87F
ROME           MOSUNNY   85  65  51 W14G22    29.86F
ELMIRA         MOSUNNY   90  52  27 N15G25    29.91S
BINGHAMTON     MOSUNNY   87  52  29 NW14G25   29.93F
MONTICELLO     MOSUNNY   88  57  35 W15G23    29.92S
$$

NYZ026>034-041>043-087-231900-
NORTH


CITY           SKY/WX    TMP DP  RH WIND       PRES   REMARKS
WATERTOWN      MOSUNNY   84  62  47 SW14      29.85R
FORT DRUM      NOT AVBL
MASSENA        SUNNY     83  63  50 W20G26    29.80F
SARANAC LAKE   MOSUNNY   77  57  50 W10       29.85S
PLATTSBURGH    MOSUNNY   85  63  47 W8        29.76S
$$

NYZ001>004-010>016-019>021-085-231900-
WEST


CITY           SKY/WX    TMP DP  RH WIND       PRES   REMARKS
NIAGARA FALLS  MOSUNNY   90  55  30 W14G21    29.93S
BUFFALO        MOSUNNY   89  53  29 NW15G24   29.94S
DUNKIRK        SUNNY     86  59  39 W10       29.97S
JAMESTOWN      SUNNY     84  55  37 W15       30.02S
WELLSVILLE     MOSUNNY   86  54  33 NW13G25   30.02F
ROCHESTER      MOSUNNY   88  57  34 NW16      29.91S
PENN YAN       MOSUNNY   89  55  31 W10G20    29.92F
$$

             KEY
       WCI = WIND CHILL INDEX
       VSB = VISIBILITY
       HX  = HEAT INDEX
$$




USA.gov is the U.S. government's official web portal to all federal, state and local government web resources and services.